Location: Cerbedi�res
(48.2182°N, 1.4849°W)
Time: 02:52:38
(UTC+00:00)

Cosmos 2322 Rocket - Pass Details

Date: 03 March 2021
Orbit: 832 x 852 km, 71.0° (Epoch: 12 April)

Event Time Altitude Azimuth Distance (km) Brightness Sun altitude
Rises 19:06:23 0° 208° (SSW) 3,364 5.7 -12.9°
Reaches altitude 10° 19:08:48 10° 210° (SSW) 2,434 4.9 -13.3°
Maximum altitude 19:14:24 82° 298° (WNW) 848 2.3 -14.3°
Drops below altitude 10° 19:20:03 10° 26° (NNE) 2,457 4.4 -15.2°
Sets 19:22:30 0° 28° (NNE) 3,398 5.1 -15.6°
